Vertical_Velocity
-1 -1 -1 1 -1 -1 -1 -0 -3 -0 -1 -2 -4 -1 -1 -2 -5 2 -6 -3 -1 1 4 6 -1 -3 2 2 2 -5 13 -0 -8 4 -6 0 2 -12 -10 1 -5 4 -7 -7 -2
-1 -3 -2 -2 -2 1 0 -4 2 -3 -1 -1 -1 -3 -4 -2 -1 -10 8 -0 -2 -1 -3 4 3 0 7 -3 8 16 7 -8 -1 1 -1 -0 5 1 9 -2 -6 2 24 -7 -3
1 -2 -2 -0 0 -3 -1 -1 -3 -2 2 -1 -2 -5 2 -4 -14 32 -1 -2 4 -2 -5 5 7 6 8 7 -6 -8 -2 -5 -8 -0 2 -1 1 1 5 -5 -1 2 -5 -1 -6
-1 1 -2 -2 -1 -2 -5 1 -3 -0 -1 -3 -2 -1 -2 -4 7 -9 -3 -2 -1 -5 3 4 10 11 8 4 -5 21 -3 3 -9 2 4 -0 -0 -3 6 -12 3 3 -5 -6 -3
0 -3 2 2 -1 0 -1 -1 0 -4 -1 -1 -3 -2 -3 8 -29 30 -1 -3 -5 -1 -4 0 6 3 1 1 8 11 -5 -1 3 -1 -2 5 -3 -5 -5 -8 -0 7 -4 -4 2
1 4 1 -2 -2 -2 -0 -0 -5 -3 -2 0 -2 -1 -2 8 4 -3 -5 1 -2 -3 -1 6 -5 0 3 1 12 -3 2 -4 -2 -3 0 10 -8 27 -19 1 3 -4 -2 -2 -3
-6 3 -1 -5 -6 -3 -1 -2 -2 -3 0 1 -1 -1 1 -52 4 0 -1 -5 9 5 -2 2 -2 18 1 0 -3 -4 10 -1 -4 -8 -8 7 2 -3 -11 9 -3 1 -3 0 4
-1 -9 1 -3 -3 -3 -3 -1 -1 -1 -1 1 -1 4 -13 5 -1 -5 2 3 -6 -6 3 -1 13 0 15 -4 -1 8 14 9 -18 2 -13 21 -17 -8 -1 -1 0 -3 1 -0 2
-5 -3 -5 -1 -3 -3 -5 -2 -4 -4 -2 2 -5 3 -9 -3 -2 4 7 1 6 -2 -3 2 7 -3 11 9 7 1 -2 3 -4 -1 1 6 -7 -3 -3 -0 -1 -2 0 1 0
4 -7 -0 -2 -1 -3 -6 -3 -1 -0 -7 -1 -2 15 -10 8 -2 -10 2 -6 1 3 12 9 9 7 10 13 -8 -6 4 1 -2 -16 4 -1 -6 -5 -2 8 -2 0 2 1 -1
3 3 -5 -2 3 -4 -12 -23 19 17 9 1 11 -1 -10 3 -6 2 6 -0 2 9 4 -3 17 -4 -12 -5 -5 2 7 2 -6 -5 4 -2 -1 -6 -5 3 2 -1 1 0 -1
3 -1 -4 -4 -4 -1 -7 11 -2 4 -10 -10 -11 -5 -4 9 0 -11 2 9 11 -1 6 21 -3 -12 1 3 5 4 3 -9 -9 -3 8 -1 -9 -5 -0 -5 -0 0 1 -2 2
3 -0 -2 -7 -2 -7 1 6 -3 0 10 -20 1 1 3 11 -9 -15 20 -5 2 7 -0 1 -23 4 9 1 9 -2 2 -2 1 -5 -1 8 -8 -2 -11 2 1 -2 -6 9 -3
1 2 -2 -10 -2 1 10 -3 2 0 9 -9 3 5 -1 -0 -0 -8 -0 -6 8 -2 1 -4 -12 4 3 0 6 7 -4 2 2 12 -1 11 -13 -4 -4 -1 1 -2 -2 -7 5
3 3 -6 -3 -11 -4 9 -1 2 2 9 11 9 4 4 4 9 5 2 20 -4 -7 22 -41 1 3 6 -17 4 -21 4 1 2 3 14 -8 16 -22 5 -2 -1 -2 1 -2 2
4 2 -4 -6 -7 -10 -4 -2 3 22 -14 8 2 0 8 3 -3 4 1 6 -3 11 2 -9 -1 8 -13 -5 0 -3 7 5 2 6 13 -11 14 -12 -1 -9 -0 1 -3 6 3
4 2 -3 -3 8 -4 -9 7 18 11 -1 -4 1 2 0 0 3 3 0 7 0 14 6 3 -7 -1 6 11 8 10 8 3 3 7 -10 -2 12 -23 -3 -0 -1 -1 1 -3 1
6 2 -5 -4 5 6 -2 18 17 -6 -5 4 0 1 3 0 0 -1 3 3 3 5 3 0 13 5 -2 -5 -13 -6 -2 -3 -6 2 -8 1 -2 -29 -6 -1 -1 -0 -2 3 1
3 -8 0 -5 -5 -6 20 12 -12 -1 2 1 -3 7 2 2 7 4 0 -0 -0 3 9 2 -1 -0 6 -1 15 -7 10 -17 10 -2 7 -3 1 1 -1 0 0 -0 2 -1 2
-5 7 -6 26 -11 7 17 -13 1 4 -0 2 6 3 2 0 6 4 1 0 1 1 4 2 4 1 -1 9 -4 11 -9 14 2 5 0 -6 -2 -6 1 -1 0 -1 -1 -1 0
9 8 7 -3 3 19 1 -10 -2 2 2 8 -0 1 0 2 2 -1 -1 8 1 0 1 3 9 10 6 1 -5 8 4 4 8 4 2 -1 -5 -1 1 1 1 -1 0 -2 2
6 5 5 2 16 -1 1 -6 -0 -4 0 -1 4 3 2 0 0 1 -0 2 -0 2 1 5 3 1 -6 4 4 5 -4 -0 8 -10 -3 1 -13 -1 0 1 2 0 3 -4 2
-1 -2 5 2 3 0 -2 -4 3 6 -3 1 0 1 -0 1 3 -0 -0 2 -2 1 5 5 -1 2 3 10 3 2 -2 0 -0 2 -5 9 -9 -2 0 -1 -2 -0 3 3 -5
7 3 13 9 -4 10 3 -6 -1 -2 -3 2 -2 6 5 2 -1 -3 0 0 -1 1 -4 3 1 5 4 9 3 1 0 -0 4 5 -6 -7 -7 -7 -4 -1 -3 -5 -2 2 7
3 -8 -3 0 -0 1 7 3 1 3 -0 4 2 5 1 4 -0 -2 -1 -2 -0 0 -0 5 2 5 -3 -0 3 0 0 -1 5 -6 11 -11 2 -5 -1 1 -1 1 -2 -3 1
1 -0 -8 -4 2 9 -2 -12 1 -5 5 -6 8 -3 2 3 -5 -0 4 2 -4 1 1 -1 -4 3 -3 -1 2 1 -2 0 -0 -3 2 2 -7 -1 -6 -4 -1 -5 -2 -3 -1
-5 -14 26 -6 -1 10 -9 -13 -11 5 -2 -1 -1 5 4 -8 -0 2 2 -1 2 3 -0 2 2 1 -7 1 1 2 -9 -2 -3 0 4 4 -18 -2 -5 -2 -1 -3 -1 -3 -3
Height
1529 1526 1524 1522 1520 1518 1516 1514 1512 1511 1508 1506 1504 1501 1499 1495 1493 1492 1490 1490 1488 1487 1489 1488 1489 1492 1492 1490 1488 1488 1479 1469 1458 1454 1453 1456 1462 1463 1463 1465 1462 1460 1462 1464 1465
1527 1525 1523 1521 1519 1516 1515 1512 1510 1508 1505 1503 1500 1499 1498 1493 1489 1484 1486 1482 1482 1484 1484 1489 1487 1488 1488 1485 1484 1483 1471 1461 1451 1455 1457 1455 1458 1458 1459 1457 1455 1454 1455 1460 1462
1526 1524 1522 1520 1517 1515 1513 1511 1509 1506 1503 1500 1497 1497 1495 1493 1488 1479 1478 1478 1477 1478 1483 1487 1486 1485 1484 1480 1477 1475 1470 1457 1454 1457 1459 1458 1458 1456 1453 1454 1452 1452 1454 1457 1458
1525 1523 1520 1518 1516 1514 1512 1510 1507 1505 1501 1498 1496 1493 1492 1493 1486 1478 1478 1477 1477 1477 1483 1484 1484 1480 1479 1474 1472 1471 1466 1461 1457 1456 1457 1456 1456 1454 1453 1452 1451 1450 1453 1454 1455
1523 1520 1518 1515 1513 1512 1509 1507 1504 1502 1499 1497 1494 1492 1490 1491 1480 1479 1476 1475 1476 1478 1480 1481 1481 1477 1473 1468 1467 1463 1462 1461 1456 1456 1455 1455 1453 1452 1449 1449 1447 1448 1451 1451 1453
1522 1518 1514 1512 1511 1510 1507 1505 1502 1499 1497 1494 1491 1490 1490 1486 1476 1474 1473 1473 1474 1477 1478 1478 1477 1475 1470 1465 1463 1460 1457 1457 1455 1451 1450 1450 1448 1448 1443 1443 1443 1447 1448 1448 1450
1519 1516 1512 1510 1509 1507 1505 1502 1499 1496 1493 1490 1488 1485 1487 1474 1473 1472 1470 1470 1473 1472 1474 1476 1475 1475 1471 1469 1465 1462 1459 1454 1450 1447 1444 1445 1440 1435 1434 1438 1442 1443 1445 1444 1446
1516 1515 1511 1508 1507 1504 1501 1498 1495 1491 1488 1485 1484 1482 1477 1470 1466 1465 1467 1466 1466 1471 1472 1472 1473 1473 1471 1468 1464 1463 1457 1453 1438 1433 1435 1439 1438 1420 1428 1435 1435 1438 1440 1440 1443
1515 1512 1511 1506 1503 1500 1497 1494 1491 1487 1484 1481 1481 1481 1471 1464 1462 1462 1464 1463 1463 1465 1470 1472 1473 1471 1470 1466 1465 1458 1455 1441 1430 1429 1433 1436 1430 1416 1427 1430 1431 1432 1433 1436 1439
1514 1510 1509 1504 1498 1496 1493 1491 1487 1482 1480 1479 1479 1483 1465 1464 1461 1460 1461 1461 1461 1461 1466 1468 1467 1462 1460 1456 1456 1456 1447 1437 1435 1423 1427 1429 1425 1422 1419 1419 1423 1424 1425 1429 1434
1510 1508 1506 1501 1495 1492 1492 1488 1487 1482 1481 1475 1468 1465 1459 1461 1460 1457 1458 1458 1459 1458 1455 1457 1457 1446 1446 1444 1443 1443 1437 1430 1421 1418 1425 1427 1422 1417 1416 1414 1413 1416 1420 1423 1429
1507 1504 1502 1499 1493 1491 1492 1493 1493 1492 1475 1467 1458 1456 1455 1460 1457 1455 1454 1456 1453 1449 1448 1446 1444 1439 1439 1438 1440 1441 1442 1435 1427 1421 1424 1427 1422 1414 1410 1408 1408 1409 1412 1419 1425
1503 1502 1500 1495 1492 1491 1493 1494 1491 1489 1478 1452 1448 1447 1450 1453 1449 1445 1448 1446 1445 1444 1437 1437 1431 1432 1435 1434 1440 1437 1440 1436 1433 1421 1420 1427 1421 1412 1404 1402 1403 1406 1410 1411 1418
1500 1498 1497 1493 1493 1493 1493 1492 1491 1488 1472 1438 1442 1442 1445 1448 1445 1440 1441 1442 1440 1437 1433 1427 1428 1424 1429 1430 1431 1434 1431 1434 1432 1429 1433 1413 1424 1402 1392 1389 1395 1400 1404 1408 1411
1496 1495 1494 1492 1490 1492 1493 1491 1490 1490 1457 1431 1436 1439 1441 1444 1439 1436 1437 1438 1434 1432 1435 1423 1424 1424 1424 1423 1425 1429 1430 1432 1431 1426 1429 1420 1422 1403 1389 1389 1388 1392 1393 1399 1407
1493 1491 1491 1490 1489 1491 1491 1490 1491 1482 1448 1427 1429 1433 1436 1437 1435 1434 1436 1435 1437 1438 1427 1423 1416 1419 1417 1419 1422 1427 1433 1429 1429 1427 1429 1416 1415 1402 1385 1380 1381 1389 1393 1393 1403
1489 1488 1487 1490 1489 1489 1490 1490 1478 1456 1427 1422 1424 1428 1429 1428 1430 1430 1431 1433 1429 1437 1430 1423 1420 1418 1419 1418 1420 1426 1430 1439 1458 1447 1425 1401 1410 1401 1377 1379 1380 1384 1389 1395 1400
1485 1484 1484 1485 1486 1488 1489 1485 1465 1429 1426 1428 1432 1430 1429 1428 1428 1427 1424 1426 1423 1421 1416 1420 1426 1411 1412 1411 1415 1419 1423 1425 1442 1431 1417 1392 1402 1390 1373 1376 1382 1385 1388 1391 1397
1481 1481 1480 1480 1482 1485 1486 1470 1447 1439 1429 1431 1433 1430 1422 1429 1429 1421 1422 1417 1420 1424 1419 1411 1408 1403 1403 1409 1413 1414 1422 1412 1417 1413 1417 1398 1388 1383 1378 1381 1384 1384 1386 1390 1393
1478 1477 1475 1476 1478 1482 1478 1459 1445 1442 1446 1445 1440 1426 1417 1424 1428 1423 1421 1421 1427 1430 1424 1414 1413 1406 1403 1410 1409 1409 1401 1418 1413 1428 1431 1405 1395 1388 1382 1378 1380 1381 1383 1386 1389
1475 1473 1468 1471 1475 1476 1462 1452 1449 1447 1453 1448 1438 1433 1428 1426 1426 1425 1425 1429 1430 1429 1425 1421 1416 1409 1410 1408 1404 1409 1407 1406 1402 1405 1411 1412 1394 1369 1377 1380 1380 1379 1382 1384 1385
1472 1470 1464 1467 1471 1464 1456 1451 1451 1450 1454 1453 1449 1445 1440 1436 1435 1432 1427 1427 1436 1435 1427 1427 1420 1413 1407 1401 1404 1402 1397 1402 1412 1408 1398 1402 1399 1379 1384 1387 1386 1386 1384 1386 1385
1467 1464 1463 1465 1457 1452 1454 1450 1449 1451 1452 1448 1446 1444 1443 1441 1439 1435 1434 1437 1438 1434 1432 1433 1423 1419 1412 1408 1406 1406 1399 1397 1398 1402 1405 1406 1403 1375 1383 1388 1391 1392 1386 1385 1387
1465 1459 1458 1460 1457 1450 1448 1446 1448 1450 1452 1449 1447 1444 1445 1441 1439 1437 1435 1438 1441 1440 1444 1442 1427 1422 1414 1412 1413 1415 1409 1406 1409 1414 1407 1401 1395 1385 1384 1385 1387 1391 1389 1385 1384
1461 1454 1450 1450 1453 1453 1452 1449 1443 1445 1450 1448 1448 1447 1445 1441 1437 1436 1436 1437 1439 1441 1439 1439 1433 1424 1420 1417 1415 1414 1413 1411 1410 1411 1413 1403 1397 1390 1387 1387 1387 1387 1388 1388 1384
1456 1456 1453 1446 1444 1446 1448 1445 1445 1439 1440 1444 1442 1437 1439 1439 1437 1431 1435 1436 1434 1434 1435 1439 1433 1427 1424 1420 1416 1413 1407 1403 1401 1401 1399 1400 1398 1393 1390 1391 1390 1389 1386 1383 1383
1452 1453 1453 1444 1442 1444 1440 1439 1441 1441 1439 1439 1441 1437 1437 1436 1438 1437 1440 1442 1440 1438 1441 1441 1433 1436 1426 1413 1412 1415 1403 1399 1397 1395 1394 1396 1391 1388 1387 1385 1382 1383 1384 1382 1381